This is the latest recevied weather packets stored in our database for station/object SV3CQY. If no packets are shown the sender has not sent any weather packets the latest 10 day(s).
| Time | Temp. | Humidity | Pressure | Rain* | Wind** | Luminosity | Snow |
|---|---|---|---|---|---|---|---|
| 1778020811 | 16.11° C | 61% | 1016.7 hPa | 0 mm | - | - | - |
| 1778019910 | 16.11° C | 60% | 1016.7 hPa | 0 mm | - | - | - |
| 1778018712 | 15.56° C | 61% | 1016.8 hPa | 0 mm | - | - | - |
| 1778018437 | 16.11° C | 60% | 1016.8 hPa | 0 mm | - | - | - |
| 1778017813 | 16.11° C | 60% | 1016.8 hPa | 0 mm | - | - | - |
| 1778016909 | 16.67° C | 63% | 1016.6 hPa | 0 mm | - | - | - |
| 1778016626 | 16.67° C | 60% | 1016.6 hPa | 0 mm | - | - | - |
| 1778014212 | 16.11° C | 55% | 1016.6 hPa | 0 mm | - | - | - |
| 1778013311 | 17.22° C | 51% | 1016.5 hPa | 0 mm | - | - | - |
| 1778012130 | 17.22° C | 54% | 1016.6 hPa | 0 mm | - | - | - |
| 1778011809 | 16.67° C | 54% | 1016.7 hPa | 0 mm | - | - | - |
| 1778010328 | 18.33° C | 53% | 1016.5 hPa | 0 mm | - | - | - |
| 1778008527 | 18.33° C | 56% | 1016.2 hPa | 0 mm | - | - | - |
| 1778004612 | 19.44° C | 56% | 1015.1 hPa | 0 mm | - | - | - |
| 1778004312 | 19.44° C | 56% | 1015.2 hPa | 0 mm | - | - | - |
| 1778003408 | 20° C | 49% | 1015.1 hPa | 0 mm | - | - | - |
| 1778002811 | 20° C | 48% | 1015.2 hPa | 0 mm | - | - | - |
| 1778001328 | 20.56° C | 47% | 1015 hPa | 0 mm | - | - | - |
| 1778000427 | 22.22° C | 26% | 1014.8 hPa | 0 mm | - | - | - |
| 1777999525 | 22.22° C | 26% | 1014.9 hPa | 0 mm | - | - | - |
| 1777998626 | 22.78° C | 28% | 1014.8 hPa | 0 mm | - | - | - |
| 1777996214 | 24.44° C | 23% | 1014.8 hPa | 0 mm | - | - | - |
| 1777993511 | 24.44° C | 23% | 1014.7 hPa | 0 mm | - | - | - |
| 1777991712 | 24.44° C | 24% | 1014.8 hPa | 0 mm | - | - | - |
| 1777989912 | 25° C | 26% | 1015 hPa | 0 mm | - | - | - |
* Rain latest hour (hover to see other rain measurements)
** Current wind speed in m/s (hover to see current wind gust speed)